TimeCST,TemperatureF,Dew PointF,Humidity,Sea Level PressureIn,VisibilityMPH,Wind Direction,Wind SpeedMPH,Gust SpeedMPH,PrecipitationIn,Events,Conditions,WindDirDegrees,DateUTC
12:15 AM,-0.4,-7.6,72,30.24,10.0,SSW,3.5,-,N/A,,Overcast,200,2013-01-22 06:15:00
12:35 AM,-0.4,-7.6,72,30.23,10.0,Calm,Calm,-,N/A,,Overcast,0,2013-01-22 06:35:00
12:55 AM,-0.4,-7.6,72,30.23,10.0,Calm,Calm,-,N/A,,Overcast,0,2013-01-22 06:55:00
1:15 AM,-2.2,-9.4,71,30.22,10.0,South,5.8,-,N/A,,Scattered Clouds,190,2013-01-22 07:15:00
1:55 AM,-0.4,-7.6,72,30.22,10.0,South,4.6,-,N/A,,Overcast,180,2013-01-22 07:55:00
2:15 AM,-0.4,-7.6,72,30.22,10.0,SSE,6.9,-,N/A,,Overcast,160,2013-01-22 08:15:00
2:35 AM,-0.4,-7.6,72,30.22,10.0,SSE,4.6,-,N/A,,Overcast,160,2013-01-22 08:35:00
2:55 AM,-0.4,-7.6,72,30.21,10.0,South,5.8,-,N/A,,Overcast,190,2013-01-22 08:55:00
3:15 AM,-0.4,-7.6,72,30.22,10.0,Calm,Calm,-,N/A,,Mostly Cloudy,0,2013-01-22 09:15:00
3:35 AM,-0.4,-7.6,72,30.22,10.0,Calm,Calm,-,N/A,,Mostly Cloudy,0,2013-01-22 09:35:00
3:55 AM,-0.4,-7.6,72,30.22,10.0,Calm,Calm,-,N/A,,Mostly Cloudy,0,2013-01-22 09:55:00
4:15 AM,-0.4,-5.8,78,30.22,10.0,Calm,Calm,-,N/A,,Overcast,0,2013-01-22 10:15:00
4:35 AM,-0.4,-5.8,78,30.21,10.0,Calm,Calm,-,N/A,,Overcast,0,2013-01-22 10:35:00
4:55 AM,-0.4,-5.8,78,30.21,10.0,Calm,Calm,-,N/A,,Overcast,0,2013-01-22 10:55:00
5:15 AM,-0.4,-5.8,78,30.20,10.0,ENE,3.5,-,N/A,,Overcast,60,2013-01-22 11:15:00
5:35 AM,-0.4,-7.6,72,30.20,10.0,Calm,Calm,-,N/A,,Overcast,0,2013-01-22 11:35:00
5:55 AM,-0.4,-5.8,78,30.18,10.0,SE,4.6,-,N/A,,Scattered Clouds,130,2013-01-22 11:55:00
6:15 AM,-0.4,-7.6,72,30.19,10.0,South,3.5,-,N/A,,Partly Cloudy,170,2013-01-22 12:15:00
6:35 AM,-2.2,-9.4,71,30.19,10.0,Calm,Calm,-,N/A,,Scattered Clouds,0,2013-01-22 12:35:00
6:55 AM,-2.2,-7.6,78,30.19,10.0,Calm,Calm,-,N/A,,Overcast,0,2013-01-22 12:55:00
7:15 AM,-0.4,-7.6,72,30.18,10.0,Calm,Calm,-,N/A,,Overcast,0,2013-01-22 13:15:00
7:35 AM,-0.4,-5.8,78,30.18,10.0,ENE,3.5,-,N/A,,Overcast,60,2013-01-22 13:35:00
7:55 AM,-0.4,-5.8,78,30.18,10.0,NE,3.5,-,N/A,,Overcast,50,2013-01-22 13:55:00
8:15 AM,-0.4,-5.8,78,30.18,10.0,ENE,3.5,-,N/A,,Overcast,70,2013-01-22 14:15:00
8:35 AM,1.4,-4.0,78,30.18,10.0,ENE,3.5,-,N/A,,Overcast,70,2013-01-22 14:35:00
8:55 AM,1.4,-4.0,78,30.17,10.0,East,3.5,-,N/A,,Overcast,80,2013-01-22 14:55:00
9:35 AM,5.0,-2.2,72,30.16,10.0,South,5.8,-,N/A,,Overcast,170,2013-01-22 15:35:00
9:55 AM,5.0,-2.2,72,30.16,9.0,South,8.1,-,N/A,Snow,Light Snow,170,2013-01-22 15:55:00
10:15 AM,6.8,-0.4,72,30.17,2.0,SSW,6.9,-,N/A,Snow,Light Snow,200,2013-01-22 16:15:00
10:35 AM,6.8,-0.4,72,30.17,2.5,SW,3.5,-,0.01,Snow,Light Snow,220,2013-01-22 16:35:00
10:55 AM,6.8,-0.4,72,30.16,1.0,SW,3.5,-,0.03,Snow,Light Snow,220,2013-01-22 16:55:00
11:15 AM,6.8,-0.4,72,30.16,3.0,SW,5.8,-,N/A,Snow,Light Snow,220,2013-01-22 17:15:00
11:35 AM,8.6,1.4,73,30.16,5.0,SSW,8.1,-,0.01,Snow,Light Snow,200,2013-01-22 17:35:00
11:55 AM,8.6,1.4,73,30.14,3.0,South,9.2,-,0.01,Snow,Light Snow,190,2013-01-22 17:55:00
12:15 PM,8.6,1.4,73,30.14,3.0,SSW,6.9,-,N/A,Snow,Light Snow,200,2013-01-22 18:15:00
12:35 PM,10.4,1.4,67,30.12,5.0,SSW,6.9,-,N/A,,Haze,210,2013-01-22 18:35:00
12:55 PM,10.4,3.2,73,30.13,4.0,SSW,5.8,-,N/A,Snow,Light Snow,210,2013-01-22 18:55:00
1:15 PM,10.4,5.0,79,30.11,2.5,South,6.9,-,N/A,Snow,Light Snow,190,2013-01-22 19:15:00
1:35 PM,10.4,5.0,79,30.10,9.0,SSW,6.9,-,N/A,,Clear,210,2013-01-22 19:35:00
1:55 PM,12.2,5.0,73,30.09,4.0,SSW,4.6,-,N/A,Snow,Light Snow,210,2013-01-22 19:55:00
2:15 PM,12.2,5.0,73,30.09,3.0,South,6.9,-,N/A,Snow,Light Snow,190,2013-01-22 20:15:00
2:35 PM,14.0,6.8,73,30.10,7.0,SSW,3.5,-,N/A,,Mostly Cloudy,210,2013-01-22 20:35:00
2:55 PM,14.0,6.8,73,30.10,9.0,Calm,Calm,-,N/A,,Overcast,0,2013-01-22 20:55:00
3:15 PM,14.0,6.8,73,30.10,8.0,SSW,3.5,-,N/A,,Overcast,200,2013-01-22 21:15:00
3:35 PM,14.0,6.8,73,30.09,4.0,South,4.6,-,N/A,Snow,Light Snow,180,2013-01-22 21:35:00
3:55 PM,14.0,8.6,79,30.09,9.0,SSW,3.5,-,0.01,Snow,Light Snow,210,2013-01-22 21:55:00
4:15 PM,14.0,8.6,79,30.08,7.0,Calm,Calm,-,N/A,Snow,Light Snow,0,2013-01-22 22:15:00
4:35 PM,15.8,8.6,73,30.08,2.5,Calm,Calm,-,N/A,Snow,Light Snow,0,2013-01-22 22:35:00
4:55 PM,15.8,10.4,79,30.07,3.0,Calm,Calm,-,0.01,Snow,Light Snow,0,2013-01-22 22:55:00
5:15 PM,14.0,10.4,86,30.08,3.0,Calm,Calm,-,N/A,Snow,Light Snow,0,2013-01-22 23:15:00
5:35 PM,14.0,10.4,86,30.07,8.0,Calm,Calm,-,N/A,Snow,Light Snow,0,2013-01-22 23:35:00
5:55 PM,14.0,8.6,79,30.08,9.0,Calm,Calm,-,N/A,,Partly Cloudy,0,2013-01-22 23:55:00
6:15 PM,12.2,8.6,85,30.08,10.0,Calm,Calm,-,N/A,,Mostly Cloudy,0,2013-01-23 00:15:00
6:35 PM,12.2,8.6,85,30.07,10.0,Calm,Calm,-,N/A,,Overcast,0,2013-01-23 00:35:00
6:55 PM,10.4,8.6,92,30.08,10.0,Calm,Calm,-,N/A,,Mostly Cloudy,0,2013-01-23 00:55:00
7:15 PM,10.4,6.8,85,30.08,10.0,Calm,Calm,-,N/A,,Mostly Cloudy,0,2013-01-23 01:15:00
7:35 PM,10.4,6.8,85,30.08,10.0,Calm,Calm,-,N/A,,Overcast,0,2013-01-23 01:35:00
7:55 PM,8.6,5.0,85,30.09,10.0,Calm,Calm,-,N/A,,Overcast,0,2013-01-23 01:55:00
8:15 PM,8.6,5.0,85,30.09,10.0,Calm,Calm,-,N/A,,Overcast,0,2013-01-23 02:15:00
8:35 PM,8.6,5.0,85,30.10,10.0,Calm,Calm,-,N/A,,Overcast,0,2013-01-23 02:35:00
8:55 PM,6.8,3.2,85,30.10,10.0,Calm,Calm,-,N/A,,Overcast,0,2013-01-23 02:55:00
9:15 PM,6.8,5.0,92,30.10,10.0,WNW,4.6,-,N/A,,Overcast,290,2013-01-23 03:15:00
9:35 PM,8.6,5.0,85,30.11,10.0,West,4.6,-,N/A,,Overcast,280,2013-01-23 03:35:00
9:55 PM,8.6,5.0,85,30.11,10.0,WNW,4.6,-,N/A,,Overcast,290,2013-01-23 03:55:00
10:15 PM,8.6,5.0,85,30.11,10.0,WNW,6.9,-,N/A,,Overcast,300,2013-01-23 04:15:00
10:35 PM,8.6,5.0,85,30.11,10.0,WNW,6.9,-,N/A,,Overcast,290,2013-01-23 04:35:00
10:55 PM,10.4,5.0,79,30.13,10.0,NW,9.2,-,N/A,,Overcast,310,2013-01-23 04:55:00
11:15 PM,10.4,5.0,79,30.13,10.0,NW,11.5,-,N/A,,Overcast,320,2013-01-23 05:15:00
11:35 PM,10.4,5.0,79,30.14,10.0,NW,11.5,-,N/A,,Overcast,310,2013-01-23 05:35:00
11:55 PM,10.4,5.0,79,30.15,10.0,NW,11.5,-,N/A,,Scattered Clouds,320,2013-01-23 05:55:00